Location: Sevilla
(37.3933°N, 5.9839°W)
Time: 12:49:43
(UTC+02:00)

S-56A Canister/Altair - Pass Details

Date: 24 June 2024
Orbit: 638 x 2488 km, 38.9° (Epoch: 14 July)

Event Time Altitude Azimuth Distance (km) Brightness Sun altitude
Rises 22:09:58 0° 236° (SW) 3,692 11.3 -4.4°
Reaches altitude 10° 22:12:13 10° 233° (SW) 2,930 10.8 -4.8°
Maximum altitude 22:19:27 66° 153° (SSE) 1,554 8.9 -6.0°
Drops below altitude 10° 22:30:33 10° 75° (ENE) 4,388 11.0 -7.7°
Sets 22:34:41 0° 73° (ENE) 5,638 11.6 -8.4°
